Location: Gunung Kajang
(2.4167°N, 113.7167°E)
Time: 22:28:33
(UTC+00:00)

ARIANE 5 R/B - Pass Details

Date: 29 May 2022
Orbit: 682 x 36105 km, 5.4° (Epoch: 24 June)

Event Time Altitude Azimuth Distance (km) Brightness Sun altitude
Exits shadow 21:24:42 - 266° (W) 9,006 7.8 -12.5°
Reaches altitude 10° 21:26:21 10° 266° (W) 8,389 7.7 -12.1°
Maximum altitude 21:44:11 86° 354° (N) 1,224 4.1 -8.0°
Drops below altitude 10° 21:48:37 10° 84° (E) 2,305 7.0 -7.0°
Sets 21:50:13 0° 84° (E) 3,066 7.9 -6.6°
